OV1-5 DEB, 5599

Orbit data source: Space-Track

OV1-5 DEB, 5599 is space debris in LEO originally from a launch on Wed, 30 Mar 1966 UTC launched from the Air Force Western Test Range (AFWTR). Debris objects in space refer to the collection of defunct objects orbiting the Earth. Examples of debris include non-operational satellites, rocket bodies, and fragments generated from explosions, collisions, or faulty payload assembly.

Loading next visibility...
Identifier
5599, 1966-025G
Orbit
LEO
Last TLE update
17 hours ago
Origin
Manufacturer
Unknown
Mission
Spacecraft
Bus & Motor
Unknown
Mass
Unknown
Launch date (UTC)
1966-03-30 (59 years ago)
Launch vehicle
Unknown
Launch site
Air Force Western Test Range (AFWTR)
Object type
Payload
Rocket body
Debris
Shape & HBR
Unknown
Radar Cross Section
Small (<0.1 m²)

Expand to show TLE details & history

TLE from 17 hours ago
0 OV1-5 DEB
1  5599U 66025G   25129.37161010  .00023111  00000-0  34656-2 0  9999
2  5599 144.6206 321.2159 0030374 116.9024 243.4787 14.72501963 45514
Epoch: 2025-05-09T08:55Z
Definitive object data (Epoch: 2025-05-09T08:55:07.112Z)
Latitude
-0.00007°
Longitude
-39.99234°
Altitude
661.648 km
Speed
7.523 km/s
True Right ascension
21h 24m 51s
True Declination
0° 00' 00"
Sunlit
Object was in daylight at TLE epoch
Visualization TLE readout
Latitude
35.45706°
Longitude
-121.87054°
Altitude
636.466 km
Speed
7.555 km/s
Apparent Right ascension
18h 35m 15s
Apparent Declination
0° 09' 59"
Sunlit
Object is in full shadow
Visualization observer readout
Local Sidereal Time
09:46:57
Azimuth
60.046° ENE
Elevation
-31.052°
Doppler factor
1
Orbital elements
Apogee altitude
677.578 km
Perigee altitude
634.845 km
Semi-major axis
7,034.349 km
Eccentricity
0.0030374
Inclination
144.6206°
RAAN
321.2159°
Arg. of periapsis
116.9024°
True anomaly
243.1678°
Mean anomaly
243.4787°
Eccentric anomaly
243.32319°
Mean motion
3.67881 °/min
BSTAR
0.0034656
Orbital period
97.86 mins
Loading maneuver chart data...
Loading SW <> Apogee altitude chart data...
Loading historical data...
Loading historical data...
Loading historical data...
Loading historical data...
Loading historical data...
Loading historical data...
Loading historical data...

OV1-5 DEB Visibility forecast

Observer location: undefined°, undefined°

Span
Click to sort rows by Start time (UTC) header in descending order
Start Az.
Max El. time (UTC)
Max El. Az.
Max El.
End time (UTC)
End Az.
6 mins2025-05-10 04:55:58.331Z109.356° ESE2025-05-10 04:58:58.331Z159.933° S21.624°2025-05-10 05:01:58.331Z210.267° SW
5 mins2025-05-10 06:29:58.331Z115.91° SE2025-05-10 06:31:58.331Z172.322° S34.024°2025-05-10 06:34:58.331Z237.873° WSW
6 mins2025-05-10 08:01:58.331Z116.374° SE2025-05-10 08:04:58.331Z190.729° SSW35.985°2025-05-10 08:07:58.331Z253.983° W
5 mins2025-05-10 09:35:58.331Z155.059° SSE2025-05-10 09:37:58.331Z202.195° SSW26.575°2025-05-10 09:40:58.331Z254.589° W
|